Rhinelander, WI

5:55 AM CDT on July 21, 2017 (GMT -0500)
Rhinelander-Oneida County

Weather History for KRHI - September, 2014

Change the Weather History Date:

Friday, September 19, 2014

  Actual Average Record
Temperature  
Mean Temperature 58 °F 54 °F  
Max Temperature 68 °F 65 °F 86 °F (1908)
Min Temperature 47 °F 43 °F 29 °F (2012)
Degree Days  
Heating Degree Days 7 11  
Month to date heating degree days 207 153  
Since 1 July heating degree days 407 280  
Cooling Degree Days 0 0  
Month to date cooling degree days 1 16  
Year to date cooling degree days 148 257  
Growing Degree Days 7 (Base 50)    
Moisture  
Dew Point 50 °F    
Average Humidity 78    
Maximum Humidity 100    
Minimum Humidity 55    
Precipitation  
Precipitation 0.00 in 0.15 in 2.09 in (1983)
Month to date precipitation 5.67 2.64  
Year to date precipitation 32.13 23.52  
Snow  
Snow 0.00 in - 0.00 in ()
Month to date snowfall T  
Since 1 July snowfall T  
Since 1 September snowfall T  
Snow Depth 0.00 in    
Sea Level Pressure  
Sea Level Pressure 29.95 in    
Wind  
Wind Speed 12 mph (SSW)    
Max Wind Speed 24 mph    
Max Gust Speed 36 mph    
Visibility 8 miles    
Events      
T = Trace of Precipitation, MM = Missing Value Source: NWS Daily Summary

Daily Weather History Graph

Daily Weather History Graph

Search for Another Location

Airport or City:

Trip Planner

Search our weather history database for the weather conditions in past years. The results will help you decide how hot, cold, wet, or windy it might be!

Date:

Astronomy

Sep. 19, 2014 Rise Set
Actual Time 6:41 AM CDT 7:01 PM CDT
Civil Twilight 6:11 AM CDT 7:30 PM CDT
Nautical Twilight 5:36 AM CDT 8:05 PM CDT
Astronomical Twilight 5:00 AM CDT 8:41 PM CDT
Moon 2:16 AM CDT (9/19) 4:38 PM CDT (9/19)
Length of Visible Light 13h 19m
Length of Day
12h 20m
Waning Crescent, 18% of the Moon is Illuminated
Sep 19
Waning Crescent
Sep 24
New
Oct 1
First Quarter
Oct 8
Full
Oct 15
Last Quarter

Hourly Weather History & Observations

Time (CDT) Temp. Windchill Dew Point Humidity Pressure Visibility Wind Dir Wind Speed Gust Speed Precip Events Conditions
12:37 AM 46.0 °F 43.1 °F 45.0 °F 96% 30.11 in 5.0 mi South 5.8 mph - N/A   Partly Cloudy
12:53 AM 46.9 °F - 45.0 °F 93% 30.14 in 5.0 mi South 5.8 mph - N/A   Scattered Clouds
1:01 AM 46.9 °F - 46.0 °F 97% 30.11 in 5.0 mi South 6.9 mph - N/A   Mostly Cloudy
1:20 AM 46.9 °F - 46.0 °F 97% 30.10 in 4.0 mi South 8.1 mph - N/A   Overcast
1:53 AM 46.9 °F - 46.0 °F 97% 30.14 in 4.0 mi South 4.6 mph - N/A   Overcast
2:53 AM 48.9 °F - 48.0 °F 97% 30.12 in 3.0 mi South 6.9 mph - N/A   Overcast
3:53 AM 50.0 °F - 48.9 °F 96% 30.11 in 4.0 mi South 9.2 mph - N/A   Overcast
4:53 AM 50.0 °F - 50.0 °F 100% 30.10 in 4.0 mi South 6.9 mph - N/A   Overcast
5:21 AM 51.1 °F - 48.9 °F 92% 30.08 in 5.0 mi South 5.8 mph - N/A   Overcast
5:53 AM 50.0 °F - 48.9 °F 96% 30.10 in 5.0 mi South 5.8 mph - N/A   Mostly Cloudy
6:10 AM 50.0 °F - 48.9 °F 96% 30.08 in 5.0 mi South 5.8 mph - N/A   Scattered Clouds
6:53 AM 48.9 °F - 48.0 °F 97% 30.09 in 4.0 mi South 5.8 mph - N/A   Clear
8:53 AM 53.1 °F - 48.9 °F 86% 30.05 in 7.0 mi South 11.5 mph 18.4 mph N/A   Clear
9:53 AM 57.0 °F - 48.9 °F 74% 30.04 in 10.0 mi South 17.3 mph 26.5 mph N/A   Partly Cloudy
10:53 AM 57.9 °F - 48.0 °F 70% 30.02 in 10.0 mi SSW 10.4 mph - N/A   Mostly Cloudy
11:53 AM 62.1 °F - 48.9 °F 62% 29.97 in 10.0 mi South 12.7 mph 21.9 mph N/A   Clear
12:53 PM 64.0 °F - 50.0 °F 60% 29.93 in 10.0 mi SSW 13.8 mph 26.5 mph N/A   Clear
1:53 PM 63.0 °F - 50.0 °F 63% 29.84 in 10.0 mi South 19.6 mph 33.4 mph N/A   Partly Cloudy
2:53 PM 66.9 °F - 52.0 °F 59% 29.84 in 10.0 mi South 19.6 mph 27.6 mph N/A   Clear
3:53 PM 68.0 °F - 51.1 °F 55% 29.80 in 10.0 mi South 18.4 mph 34.5 mph N/A   Clear
4:53 PM 66.0 °F - 52.0 °F 60% 29.78 in 10.0 mi SW 10.4 mph 28.8 mph N/A   Scattered Clouds
5:53 PM 64.9 °F - 53.1 °F 65% 29.80 in 10.0 mi SW 13.8 mph 19.6 mph N/A   Overcast
6:53 PM 64.9 °F - 52.0 °F 63% 29.79 in 10.0 mi SSW 11.5 mph 23.0 mph N/A   Overcast
7:53 PM 64.0 °F - 53.1 °F 67% 29.77 in 10.0 mi SSW 10.4 mph - N/A   Overcast
8:53 PM 64.0 °F - 53.1 °F 67% 29.75 in 10.0 mi SSW 11.5 mph 25.3 mph N/A   Partly Cloudy
9:53 PM 64.0 °F - 53.1 °F 67% 29.74 in 10.0 mi SW 16.1 mph 27.6 mph N/A   Mostly Cloudy
10:51 PM 64.4 °F - 53.6 °F 68% 29.75 in 10.0 mi SW 13.8 mph 26.5 mph N/A   Overcast
10:53 PM 64.0 °F - 54.0 °F 70% 29.75 in 10.0 mi SW 16.1 mph 26.5 mph N/A   Overcast
11:53 PM 63.0 °F - 55.0 °F 75% 29.73 in 10.0 mi SW 15.0 mph - N/A   Overcast